K4DNM Weather Reports


Display with metric or nautical units.
time (UTC)temp
F
wind
direction
speed
MPH
gust
MPH
rain 1hr
in
rain 24hr
in
rain mn
in
humidity
%
barometer
mb
20260831183145 93 328 1.0 3.0 0.00 0.00 0.00 50 1017.8
20260831182644 94 300 1.0 3.0 0.00 0.00 0.00 56 1017.8
20260831182143 93 140 1.0 3.0 0.00 0.00 0.00 50 1017.9
20260831181641 94 184 1.0 3.0 0.00 0.00 0.00 50 1017.9
20260831181140 93 0 1.0 2.0 0.00 0.00 0.00 49 1017.9
20260831180858 93 335 1.0 2.0 0.00 0.00 0.00 59 1018.0
20260831180745 93 335 1.0 2.0 0.00 0.00 0.00 59 1018.0
20260831180136 92 0 1.0 2.0 0.00 0.00 0.00 55 1018.0
20260831175635 91 0 1.0 3.0 0.00 0.00 0.00 53 1018.0
20260831175134 91 108 1.0 4.0 0.00 0.00 0.00 53 1018.1
20260831174632 91 223 2.0 4.0 0.00 0.00 0.00 56 1018.1
20260831174346 92 153 1.0 4.0 0.00 0.00 0.00 57 1018.1
20260831174234 92 153 1.0 4.0 0.00 0.00 0.00 57 1018.1
20260831173624 91 0 1.0 4.0 0.00 0.00 0.00 59 1018.1
20260831173400 91 194 2.0 4.0 0.00 0.00 0.00 59 1018.1
20260831173241 91 194 2.0 4.0 0.00 0.00 0.00 59 1018.1
20260831172619 91 109 1.0 3.0 0.00 0.00 0.00 59 1018.1
20260831172120 91 176 1.0 4.0 0.00 0.00 0.00 61 1018.1
20260831171614 91 26 1.0 4.0 0.00 0.00 0.00 58 1018.1
20260831171340 91 216 1.0 3.0 0.00 0.00 0.00 58 1018.2
20260831171218 91 216 1.0 3.0 0.00 0.00 0.00 58 1018.2
20260831170613 91 346 1.0 3.0 0.00 0.00 0.00 57 1018.2
20260831170122 91 107 1.0 3.0 0.00 0.00 0.00 56 1018.2
20260831165610 91 356 1.0 4.0 0.00 0.00 0.00 59 1018.3
20260831165554 91 224 1.0 4.0 0.00 0.00 0.00 60 1018.3
20260831165216 91 224 1.0 4.0 0.00 0.00 0.00 60 1018.3
20260831164608 91 53 1.0 3.0 0.00 0.00 0.00 60 1018.3
20260831164108 90 2 1.0 4.0 0.00 0.00 0.00 61 1018.4
20260831163609 90 343 2.0 4.0 0.00 0.00 0.00 62 1018.4
20260831163102 90 330 1.0 4.0 0.00 0.00 0.00 62 1018.5
20260831162603 91 17 2.0 4.0 0.00 0.00 0.00 60 1018.6
20260831162100 92 1 1.0 2.0 0.00 0.00 0.00 58 1018.6
20260831161601 92 345 1.0 3.0 0.00 0.00 0.00 58 1018.6
20260831161101 91 0 1.0 3.0 0.00 0.00 0.00 60 1018.6
20260831160600 91 203 1.0 3.0 0.00 0.00 0.00 60 1018.6
20260831160109 91 0 1.0 2.0 0.00 0.00 0.00 58 1018.7
20260831155557 91 321 1.0 2.0 0.00 0.00 0.00 58 1018.8
20260831155056 90 184 1.0 3.0 0.00 0.00 0.00 61 1018.8
20260831154819 89 0 1.0 3.0 0.00 0.00 0.00 63 1018.8
20260831154658 89 0 1.0 3.0 0.00 0.00 0.00 63 1018.8
20260831154054 90 20 1.0 3.0 0.00 0.00 0.00 63 1018.8
20260831153554 89 312 1.0 3.0 0.00 0.00 0.00 63 1018.9
20260831153317 89 0 1.0 5.0 0.00 0.00 0.00 66 1018.9
20260831153157 89 0 1.0 5.0 0.00 0.00 0.00 66 1018.9
20260831152551 89 328 1.0 5.0 0.00 0.00 0.00 64 1018.9
20260831152050 89 197 1.0 3.0 0.00 0.00 0.00 64 1018.9
20260831151814 89 0 1.0 2.0 0.00 0.00 0.00 64 1018.9
20260831151652 89 0 1.0 2.0 0.00 0.00 0.00 64 1018.9
20260831151047 89 34 1.0 4.0 0.00 0.00 0.00 65 1018.9
20260831150545 89 295 1.0 4.0 0.00 0.00 0.00 66 1018.9
20260831150039 88 220 1.0 2.0 0.00 0.00 0.00 65 1018.9
20260831145537 88 0 1.0 5.0 0.00 0.00 0.00 67 1018.8
20260831145038 88 176 1.0 5.0 0.00 0.00 0.00 68 1018.8
20260831144534 88 210 1.0 3.0 0.00 0.00 0.00 66 1018.8
20260831144029 87 0 1.0 4.0 0.00 0.00 0.00 67 1018.8
20260831143528 87 0 1.0 4.0 0.00 0.00 0.00 69 1018.8
20260831143029 88 2 1.0 4.0 0.00 0.00 0.00 70 1018.8
20260831142527 88 275 1.0 3.0 0.00 0.00 0.00 68 1018.8
20260831142023 87 0 1.0 3.0 0.00 0.00 0.00 70 1018.8
20260831141522 87 0 1.0 3.0 0.00 0.00 0.00 73 1018.8
20260831141019 87 285 0.0 3.0 0.00 0.00 0.00 72 1018.8
20260831140520 87 255 0.0 2.0 0.00 0.00 0.00 72 1018.8
20260831140017 86 270 0.0 2.0 0.00 0.00 0.00 75 1018.7
20260831135516 86 0 0.0 3.0 0.00 0.00 0.00 76 1018.6
20260831135014 86 0 0.0 3.0 0.00 0.00 0.00 74 1018.6
20260831134732 85 175 1.0 2.0 0.00 0.00 0.00 75 1018.6
20260831134618 85 175 1.0 2.0 0.00 0.00 0.00 75 1018.6
20260831134011 85 318 1.0 3.0 0.00 0.00 0.00 75 1018.7
20260831133510 85 338 1.0 3.0 0.00 0.00 0.00 74 1018.7
20260831133008 85 0 0.0 2.0 0.00 0.00 0.00 76 1018.7
20260831132507 85 0 0.0 2.0 0.00 0.00 0.00 78 1018.6
20260831132005 85 0 0.0 1.0 0.00 0.00 0.00 77 1018.6
20260831131506 84 0 0.0 2.0 0.00 0.00 0.00 80 1018.6
20260831131002 83 0 0.0 2.0 0.00 0.00 0.00 80 1018.6
20260831130500 83 348 0.0 2.0 0.00 0.00 0.00 80 1018.7
20260831130000 82 205 0.0 2.0 0.00 0.00 0.00 81 1018.7
20260831125501 82 0 0.0 2.0 0.00 0.00 0.00 83 1018.7
20260831125222 81 0 0.0 2.0 0.00 0.00 0.00 85 1018.7
20260831125103 81 0 0.0 2.0 0.00 0.00 0.00 85 1018.7
20260831124503 80 225 0.0 2.0 0.00 0.00 0.00 86 1018.7
20260831124220 79 0 0.0 3.0 0.00 0.00 0.00 91 1018.7
20260831124104 79 0 0.0 3.0 0.00 0.00 0.00 91 1018.7
20260831123458 78 0 0.0 3.0 0.00 0.00 0.00 91 1018.7
20260831122955 78 0 0.0 2.0 0.00 0.00 0.00 94 1018.7
20260831122507 77 0 0.0 1.0 0.00 0.00 0.00 95 1018.7
20260831121954 77 0 0.0 1.0 0.00 0.00 0.00 96 1018.6
20260831121454 76 0 0.0 1.0 0.00 0.00 0.00 96 1018.6
20260831120949 75 0 0.0 1.0 0.00 0.00 0.00 97 1018.5
20260831120445 74 0 0.0 0.0 0.00 0.00 0.00 97 1018.4
20260831115946 74 0 0.0 0.0 0.00 0.00 0.00 98 1018.4
20260831115706 74 0 0.0 2.0 0.00 0.00 0.00 98 1018.4
20260831115548 74 0 0.0 2.0 0.00 0.00 0.00 98 1018.4
20260831114943 73 0 0.0 2.0 0.00 0.00 0.00 98 1018.4
20260831114442 73 175 0.0 2.0 0.00 0.00 0.00 98 1018.5
20260831113943 72 0 0.0 1.0 0.00 0.00 0.00 98 1018.5
20260831113442 72 0 0.0 1.0 0.00 0.00 0.00 98 1018.5
20260831112944 71 0 0.0 1.0 0.00 0.00 0.00 98 1018.6
20260831112702 71 0 0.0 1.0 0.00 0.00 0.00 98 1018.5
20260831112547 71 0 0.0 1.0 0.00 0.00 0.00 98 1018.5
20260831111943 70 0 0.0 0.0 0.00 0.00 0.00 98 1018.6
20260831111443 70 0 0.0 0.0 0.00 0.00 0.00 98 1018.5
20260831110943 69 0 0.0 0.0 0.00 0.00 0.00 98 1018.5
20260831110443 69 0 0.0 0.0 0.00 0.00 0.00 98 1018.4
20260831105943 69 0 0.0 1.0 0.00 0.00 0.00 98 1018.4
20260831105429 69 0 0.0 1.0 0.00 0.00 0.00 98 1018.4
20260831104929 69 0 0.0 1.0 0.00 0.00 0.00 98 1018.3
20260831104430 69 0 0.0 1.0 0.00 0.00 0.00 98 1018.3
20260831103930 69 158 0.0 1.0 0.00 0.00 0.00 98 1018.3
20260831103429 69 0 0.0 1.0 0.00 0.00 0.00 98 1018.3
20260831102930 69 0 0.0 0.0 0.00 0.00 0.00 98 1018.3
20260831102431 69 0 0.0 0.0 0.00 0.00 0.00 98 1018.2
20260831101930 69 0 0.0 1.0 0.00 0.00 0.00 98 1018.1
20260831101650 69 0 0.0 1.0 0.00 0.00 0.00 98 1018.0
20260831101535 69 0 0.0 1.0 0.00 0.00 0.00 98 1018.0
20260831100943 69 0 0.0 0.0 0.00 0.00 0.00 98 1018.0
20260831100430 69 0 0.0 1.0 0.00 0.00 0.00 98 1018.0
20260831095915 69 0 0.0 1.0 0.00 0.00 0.00 98 1018.0
20260831095417 69 0 0.0 0.0 0.00 0.00 0.00 98 1018.1
20260831094916 69 0 0.0 0.0 0.00 0.00 0.00 98 1018.1
20260831094416 69 0 0.0 0.0 0.00 0.00 0.00 98 1018.1
20260831093916 69 0 0.0 0.0 0.00 0.00 0.00 98 1018.1
20260831093416 69 0 0.0 1.0 0.00 0.00 0.00 98 1018.1
20260831093139 69 0 0.0 1.0 0.00 0.00 0.00 98 1018.1
20260831093021 69 0 0.0 1.0 0.00 0.00 0.00 98 1018.1
20260831092420 70 0 0.0 0.0 0.00 0.00 0.00 98 1018.1
20260831091920 70 0 0.0 1.0 0.00 0.00 0.00 98 1018.1
20260831091420 70 0 0.0 2.0 0.00 0.00 0.00 98 1018.0
20260831090918 70 0 0.0 2.0 0.00 0.00 0.00 98 1018.0
20260831090404 70 0 0.0 1.0 0.00 0.00 0.00 98 1018.0
20260831085904 70 0 0.0 1.0 0.00 0.00 0.00 98 1018.0
20260831085405 70 179 0.0 2.0 0.00 0.00 0.00 98 1017.9
20260831084904 70 0 1.0 2.0 0.00 0.00 0.00 98 1017.9
20260831084405 70 196 1.0 2.0 0.00 0.00 0.00 98 1017.9
20260831083905 70 0 0.0 2.0 0.00 0.00 0.00 98 1017.9
20260831083405 70 0 0.0 0.0 0.00 0.00 0.00 98 1018.0
20260831082905 70 0 0.0 0.0 0.00 0.00 0.00 98 1017.9
20260831082405 70 0 0.0 0.0 0.00 0.00 0.00 98 1017.9
20260831081905 70 0 0.0 0.0 0.00 0.00 0.00 98 1018.0
20260831081404 70 0 0.0 0.0 0.00 0.00 0.00 98 1018.0
20260831080849 70 0 0.0 0.0 0.00 0.00 0.00 98 1018.1
20260831080617 71 0 0.0 0.0 0.00 0.00 0.00 98 1018.1
20260831080455 71 0 0.0 0.0 0.00 0.00 0.00 98 1018.1
20260831075850 71 0 0.0 0.0 0.00 0.00 0.00 98 1018.1
20260831075351 71 0 0.0 0.0 0.00 0.00 0.00 98 1018.1
20260831074853 71 0 0.0 0.0 0.00 0.00 0.00 98 1018.1
20260831074849 71 0 0.0 0.0 0.00 0.00 0.00 98 1018.2
20260831074351 71 0 0.0 0.0 0.00 0.00 0.00 98 1018.2
20260831073849 71 0 0.0 2.0 0.00 0.00 0.00 98 1018.3
20260831073351 71 167 0.0 2.0 0.00 0.00 0.00 98 1018.3
20260831072849 70 0 0.0 1.0 0.00 0.00 0.00 98 1018.3
20260831072350 70 0 0.0 1.0 0.00 0.00 0.00 98 1018.3
20260831071833 70 0 0.0 1.0 0.00 0.00 0.00 98 1018.3
20260831071334 70 137 0.0 1.0 0.00 0.00 0.00 98 1018.4
20260831071311 71 0 0.0 0.0 0.00 0.00 0.00 98 1018.4
20260831070935 71 0 0.0 0.0 0.00 0.00 0.00 98 1018.4
20260831070321 71 0 0.0 0.0 0.00 0.00 0.00 98 1018.3
20260831070041 71 0 0.0 1.0 0.00 0.00 0.00 98 1018.3
20260831065926 71 0 0.0 1.0 0.00 0.00 0.00 98 1018.3
20260831065543 71 0 0.0 1.0 0.00 0.00 0.00 98 1018.3
20260831065426 71 0 0.0 1.0 0.00 0.00 0.00 98 1018.3
20260831064822 71 0 0.0 0.0 0.00 0.00 0.00 98 1018.4
20260831064319 72 0 0.0 0.0 0.00 0.00 0.00 98 1018.5
20260831063819 72 0 0.0 3.0 0.00 0.00 0.00 98 1018.4
20260831063319 72 0 1.0 3.0 0.00 0.00 0.00 98 1018.4
20260831062819 71 0 0.0 3.0 0.00 0.00 0.00 98 1018.4
20260831062319 71 0 0.0 2.0 0.00 0.00 0.00 97 1018.5
20260831061819 71 0 0.0 2.0 0.00 0.00 0.00 98 1018.4
20260831061543 71 0 0.0 1.0 0.00 0.00 0.00 97 1018.5
20260831061423 71 0 0.0 1.0 0.00 0.00 0.00 97 1018.5
20260831060819 71 0 0.0 2.0 0.00 0.00 0.00 97 1018.5
20260831060320 71 0 0.0 2.0 0.00 0.00 0.00 97 1018.5
20260831055819 71 0 0.0 2.0 0.00 0.00 0.00 97 1018.5
20260831055321 71 0 0.0 2.0 0.00 0.00 0.00 97 1018.5
20260831054818 71 0 1.0 4.0 0.00 0.00 0.00 97 1018.6
20260831054320 71 183 1.0 4.0 0.00 0.00 0.00 97 1018.6
20260831053818 71 172 0.0 3.0 0.00 0.00 0.00 97 1018.6
20260831053319 71 0 0.0 2.0 0.00 0.00 0.00 97 1018.6
20260831052818 71 0 0.0 1.0 0.00 0.00 0.00 97 1018.6
20260831052318 71 0 0.0 0.0 0.00 0.00 0.00 97 1018.6
20260831051818 71 0 0.0 1.0 0.00 0.00 0.00 97 1018.6
20260831051319 71 0 0.0 1.0 0.00 0.00 0.00 97 1018.6
20260831050818 72 0 0.0 0.0 0.00 0.00 0.00 97 1018.6
20260831050319 72 0 0.0 2.0 0.00 0.00 0.00 97 1018.6
20260831045819 72 0 0.0 2.0 0.00 0.00 0.00 97 1018.7
20260831045318 72 177 0.0 2.0 0.00 0.00 0.00 97 1018.7
20260831044819 72 0 0.0 1.0 0.00 0.00 0.00 97 1018.7
20260831044314 72 112 0.0 1.0 0.00 0.00 0.00 97 1018.7
20260831043816 72 0 0.0 1.0 0.00 0.00 0.00 97 1018.7
20260831043315 72 194 0.0 2.0 0.00 0.00 0.00 97 1018.8
20260831042815 72 0 0.0 2.0 0.00 0.00 0.00 97 1018.9
20260831042539 72 0 0.0 1.0 0.00 0.00 0.00 97 1018.9
20260831042419 72 0 0.0 1.0 0.00 0.00 0.00 97 1018.9
20260831041815 72 0 0.0 1.0 0.00 0.00 0.00 97 1018.9
20260831041315 72 0 0.0 1.0 0.00 0.00 0.00 97 1018.9
20260831040814 73 303 0.0 1.0 0.00 0.00 0.00 97 1018.9
20260831040313 73 0 0.0 0.0 0.00 0.00 0.00 97 1018.9
20260831040039 73 0 0.0 0.0 0.00 0.00 0.00 97 1018.9
20260831035917 73 0 0.0 0.0 0.00 0.00 0.00 97 1018.9
20260831035313 73 0 0.0 1.0 0.00 0.00 0.00 97 1019.0
20260831034809 73 0 0.0 1.0 0.00 0.00 0.00 97 1018.9
20260831034310 73 0 0.0 0.0 0.00 0.00 0.00 97 1018.9
20260831033810 73 0 0.0 0.0 0.00 0.00 0.00 97 1018.9
20260831033310 73 0 0.0 5.0 0.00 0.00 0.00 97 1018.8
20260831032810 73 0 0.0 5.0 0.00 0.00 0.00 97 1018.9
20260831032534 73 0 0.0 2.0 0.00 0.00 0.00 97 1019.0
20260831032415 73 0 0.0 2.0 0.00 0.00 0.00 97 1019.0
20260831031811 74 0 0.0 2.0 0.00 0.00 0.00 97 1019.0
20260831031312 74 0 0.0 1.0 0.00 0.00 0.00 97 1019.0
20260831030812 74 0 0.0 2.0 0.00 0.00 0.00 97 1019.0
20260831030310 74 207 0.0 2.0 0.00 0.00 0.00 96 1019.0
20260831025807 74 187 0.0 2.0 0.00 0.00 0.00 96 1019.0
20260831025308 74 0 0.0 2.0 0.00 0.00 0.00 96 1018.9
20260831024805 74 0 0.0 1.0 0.00 0.00 0.00 96 1018.9
20260831024306 74 0 0.0 1.0 0.00 0.00 0.00 96 1018.9
20260831023806 74 0 0.0 0.0 0.00 0.00 0.00 96 1019.0
20260831023306 74 0 0.0 0.0 0.00 0.00 0.00 96 1019.0
20260831022806 74 0 0.0 1.0 0.00 0.00 0.00 96 1019.0
20260831022307 74 0 0.0 1.0 0.00 0.00 0.00 96 1018.9
20260831021806 74 0 0.0 1.0 0.00 0.00 0.00 96 1018.9
20260831021306 74 170 0.0 1.0 0.00 0.00 0.00 96 1018.9
20260831020806 74 0 0.0 1.0 0.00 0.00 0.00 96 1018.9
20260831020529 74 189 0.0 1.0 0.00 0.00 0.00 96 1018.8
20260831020409 74 189 0.0 1.0 0.00 0.00 0.00 96 1018.8
20260831015806 74 0 0.0 2.0 0.00 0.00 0.00 95 1018.9
20260831015306 74 0 0.0 2.0 0.00 0.00 0.00 95 1018.9
20260831014800 75 0 0.0 0.0 0.00 0.00 0.00 95 1018.8
20260831014300 75 0 0.0 0.0 0.00 0.00 0.00 95 1018.8
20260831013800 75 0 0.0 1.0 0.00 0.00 0.00 95 1018.7
20260831013300 75 0 0.0 1.0 0.00 0.00 0.00 95 1018.6
20260831012800 75 0 0.0 1.0 0.00 0.00 0.00 95 1018.6
20260831012736 75 0 0.0 0.0 0.00 0.00 0.00 95 1018.6
20260831012404 75 0 0.0 0.0 0.00 0.00 0.00 95 1018.6
20260831011801 75 0 0.0 2.0 0.00 0.00 0.00 94 1018.6
20260831011301 75 0 0.0 2.0 0.00 0.00 0.00 94 1018.6
20260831010758 75 190 0.0 1.0 0.00 0.00 0.00 94 1018.5
20260831010520 76 0 0.0 0.0 0.00 0.00 0.00 94 1018.4
20260831010400 75 175 0.0 1.0 0.00 0.00 0.00 94 1018.4
20260831005902 76 0 0.0 0.0 0.00 0.00 0.00 94 1018.4
20260831005258 76 0 0.0 0.0 0.00 0.00 0.00 94 1018.4
20260831004754 76 0 0.0 1.0 0.00 0.00 0.00 93 1018.4
20260831004525 76 0 0.0 1.0 0.00 0.00 0.00 93 1018.4
20260831004359 76 0 0.0 1.0 0.00 0.00 0.00 93 1018.4
20260831003755 76 0 0.0 1.0 0.00 0.00 0.00 93 1018.4
20260831003255 76 0 0.0 2.0 0.00 0.00 0.00 93 1018.4
20260831002758 76 188 1.0 2.0 0.00 0.00 0.00 93 1018.4
20260831002754 77 195 0.0 2.0 0.00 0.00 0.00 92 1018.5
20260831002400 77 195 0.0 2.0 0.00 0.00 0.00 92 1018.5
20260831001755 77 0 0.0 0.0 0.00 0.00 0.00 91 1018.5
20260831001519 77 0 0.0 1.0 0.00 0.00 0.00 90 1018.5
20260831001359 77 0 0.0 1.0 0.00 0.00 0.00 90 1018.5
20260831000755 78 0 0.0 1.0 0.00 0.00 0.00 90 1018.5
20260831000255 78 0 0.0 1.0 0.00 0.00 0.00 90 1018.5
20260831000018 78 0 0.0 1.0 0.00 0.00 0.00 90 1018.5
20260830235900 78 0 0.0 1.0 0.00 0.00 0.00 90 1018.5
20260830235520 78 0 0.0 0.0 0.00 0.00 0.00 89 1018.5
20260830234755 78 0 0.0 1.0 0.00 0.00 0.00 89 1018.5
20260830234355 79 0 0.0 1.0 0.00 0.00 0.00 88 1018.7
20260830234255 79 0 0.0 1.0 0.00 0.00 0.00 88 1018.6
20260830234037 80 0 0.0 1.0 0.00 0.00 0.00 87 1018.5
20260830234007 79 0 0.0 1.0 0.00 0.00 0.00 88 1018.7
20260830233805 79 0 0.0 1.0 0.00 0.00 0.00 87 1018.6
20260830233706 80 0 0.0 1.0 0.00 0.00 0.00 87 1018.6
20260830233608 80 0 0.0 0.0 0.00 0.00 0.00 87 1018.6
20260830233516 80 0 0.0 1.0 0.00 0.00 0.00 87 1018.5
20260830231752 80 0 0.0 1.0 0.00 0.00 0.00 87 1018.5
20260830231256 80 292 0.0 1.0 0.00 0.00 0.00 86 1018.6
20260830230754 80 201 0.0 1.0 0.00 0.00 0.00 84 1018.7
20260830230254 80 0 0.0 1.0 0.00 0.00 0.00 84 1018.7
20260830225748 81 0 0.0 0.0 0.00 0.00 0.00 83 1018.8
20260830225244 81 0 0.0 0.0 0.00 0.00 0.00 84 1018.9
20260830224745 81 0 0.0 0.0 0.00 0.00 0.00 84 1018.9
20260830224245 81 0 0.0 1.0 0.00 0.00 0.00 84 1019.0
20260830223744 81 0 0.0 1.0 0.00 0.00 0.00 84 1019.0
20260830223245 82 0 0.0 1.0 0.00 0.00 0.00 83 1018.9
20260830223008 82 226 0.0 1.0 0.00 0.00 0.00 81 1018.8
20260830222850 82 226 0.0 1.0 0.00 0.00 0.00 81 1018.8
20260830222247 82 0 0.0 0.0 0.00 0.00 0.00 82 1018.8
20260830222008 82 0 0.0 1.0 0.00 0.00 0.00 81 1018.8
20260830221851 82 0 0.0 1.0 0.00 0.00 0.00 81 1018.8
20260830221246 82 0 0.0 1.0 0.00 0.00 0.00 80 1018.9
20260830220745 83 0 0.0 1.0 0.00 0.00 0.00 80 1019.0
20260830220246 83 0 0.0 2.0 0.00 0.00 0.00 79 1019.0
20260830215745 83 241 0.0 2.0 0.00 0.00 0.00 78 1019.0
20260830215239 83 0 0.0 1.0 0.00 0.00 0.00 78 1019.0
20260830215004 83 0 0.0 1.0 0.00 0.00 0.00 78 1018.9
20260830214844 83 0 0.0 1.0 0.00 0.00 0.00 78 1018.9
20260830214240 83 226 0.0 1.0 0.00 0.00 0.00 78 1018.8
20260830214006 84 0 0.0 1.0 0.00 0.00 0.00 78 1018.8
20260830213844 84 0 0.0 1.0 0.00 0.00 0.00 78 1018.8
20260830213506 84 0 0.0 2.0 0.00 0.00 0.00 78 1018.8
20260830213345 84 0 0.0 2.0 0.00 0.00 0.00 78 1018.8
20260830212740 84 0 0.0 2.0 0.00 0.00 0.00 78 1018.9
20260830212243 84 0 0.0 2.0 0.00 0.00 0.00 76 1018.9
20260830211737 85 0 0.0 1.0 0.00 0.00 0.00 74 1018.8
20260830211238 85 0 0.0 2.0 0.00 0.00 0.00 74 1018.7
20260830210735 85 0 0.0 2.0 0.00 0.00 0.00 74 1018.7
20260830210232 86 222 0.0 2.0 0.00 0.00 0.00 73 1018.7
20260830205731 86 0 0.0 2.0 0.00 0.00 0.00 70 1018.7
20260830205450 86 225 0.0 2.0 0.00 0.00 0.00 69 1018.7
20260830205335 86 225 0.0 2.0 0.00 0.00 0.00 69 1018.7
20260830204728 86 0 0.0 2.0 0.00 0.00 0.00 70 1018.7
20260830204447 87 235 0.0 3.0 0.00 0.00 0.00 68 1018.6
20260830204331 87 235 0.0 3.0 0.00 0.00 0.00 68 1018.6
20260830203726 86 0 0.0 3.0 0.00 0.00 0.00 67 1018.6
20260830203223 87 347 0.0 2.0 0.00 0.00 0.00 66 1018.7
20260830203155 86 0 1.0 3.0 0.00 0.00 0.00 69 1018.8
20260830202818 86 266 1.0 3.0 0.00 0.00 0.00 68 1018.7
20260830202326 86 0 1.0 3.0 0.00 0.00 0.00 69 1018.8
20260830201720 86 178 1.0 3.0 0.00 0.00 0.00 69 1019.0
20260830201217 87 197 1.0 2.0 0.00 0.00 0.00 66 1019.0
20260830200716 87 227 0.0 2.0 0.00 0.00 0.00 69 1019.0
20260830200216 87 237 0.0 2.0 0.00 0.00 0.00 69 1019.0
20260830195715 87 0 1.0 3.0 0.00 0.00 0.00 70 1019.0
20260830195212 87 118 1.0 3.0 0.00 0.00 0.00 67 1019.1
20260830194711 87 227 0.0 1.0 0.00 0.00 0.00 68 1019.3
20260830194208 87 0 0.0 2.0 0.00 0.00 0.00 68 1019.4
20260830193935 87 0 0.0 2.0 0.00 0.00 0.00 66 1019.5
20260830193815 87 0 0.0 2.0 0.00 0.00 0.00 66 1019.5
20260830193206 86 0 1.0 4.0 0.00 0.00 0.00 70 1019.5
20260830192705 86 0 2.0 5.0 0.00 0.00 0.00 67 1019.5
20260830192201 86 208 2.0 5.0 0.00 0.00 0.00 71 1019.5
20260830191702 85 173 2.0 5.0 0.00 0.00 0.00 69 1019.6
20260830191200 86 154 2.0 5.0 0.00 0.00 0.00 69 1019.7
20260830190703 87 161 2.0 4.0 0.00 0.00 0.00 67 1019.6
20260830190201 88 208 1.0 4.0 0.00 0.00 0.00 65 1019.7
20260830185658 88 0 0.0 4.0 0.00 0.00 0.00 68 1019.7
20260830185158 88 151 0.0 2.0 0.00 0.00 0.00 68 1019.7
20260830184658 87 0 0.0 2.0 0.00 0.00 0.00 66 1019.8
20260830184158 87 188 0.0 1.0 0.00 0.00 0.00 69 1019.8
20260830183658 86 0 0.0 2.0 0.00 0.00 0.00 67 1019.8